Station MDRM1 - Mt. Desert Rock, ME Image indicating link to RSS feed of recent meteorological observations for station MDRM1


Conditions at MDRM1 as of
(3:00 pm EDT)
1900 GMT on 05/28/2024:
     

Click on the graph icon in the table below to see a time series plot of the last five days of that observation.

5-day plot - Wind Direction Wind Direction (WDIR): S ( 170 deg true )
5-day plot - Wind Speed Wind Speed (WSPD): 17 kts
5-day plot - Wind Gust Wind Gust (GST): 18 kts
5-day plot - Atmospheric Pressure Atmospheric Pressure (PRES):29.63 in
5-day plot - Pressure Tendency Pressure Tendency (PTDY):-0.02 in ( Falling )
5-day plot - Air Temperature Air Temperature (ATMP): 51.4 °F
5-day plot - Dew Point Dew Point (DEWP): 51.4 °F
5-day plot - Wind Chill Wind Chill (CHILL): 45.5 °F
5-day plot - Wind Speed at 10 Meters Wind Speed at 10 meters (WSPD10M): 16 kts
5-day plot - Wind Speed at 20 Meters Wind Speed at 20 meters (WSPD20M): 17 kts
5-day plot -  Wind Speed, Wind Gust and Atmospheric Pressure Combined plot of Wind Speed, Gust, and Air Pressure
Continuous Winds
TIME
(EDT)
5-day plot - Wind Direction WDIR 5-day plot - Wind Speed WSPD
3:00 pmSSE ( 168 deg ) 17 kts
2:50 pmSSE ( 165 deg ) 16 kts
2:40 pmSSE ( 163 deg ) 16 kts
2:30 pmSSE ( 161 deg ) 17 kts
2:20 pmSSE ( 158 deg ) 17 kts
2:10 pmSSE ( 161 deg ) 17 kts
 
Peak gust during the measurement hour
TIME
(EDT)
5-day plot - Gust Direction GDR 5-day plot - Gust Speed GST
2:55 pmS ( 170 deg ) 19 kts
Previous observations
TIME
(EDT)
5-day plot - Wind Direction
WDIR
 
5-day plot - Wind Speed
WSPD
kts
5-day plot - Wind Gust
GST
kts
5-day plot - Wave Height
WVHT
ft
5-day plot - Dominant Wave Period
DPD
sec
5-day plot - Average Wave Period
APD
sec
5-day plot - Mean Wave Direction
MWD
 
5-day plot - Atmospheric Pressure
PRES
in
5-day plot - Pressure Tendency
PTDY
in
5-day plot - Air Temperature
ATMP
°F
5-day plot - Water Temperature
WTMP
°F
5-day plot - Dew Point
DEWP
°F
5-day plot - Salinity
SAL
psu
5-day plot - Visibility
VIS
nmi
5-day plot - Tide (above MLLW)
TIDE
ft
2024-05-28 02:00 pmSSE 16 17----29.63-0.04 51.8- 51.8---
2024-05-28 01:00 pm S 17 18----29.63-0.04 52.5- 52.5---
2024-05-28 12:00 pmSSE 18 19----29.65-0.02 51.8- 51.8---
2024-05-28 11:00 amSSE 18 19----29.67-0.01 52.2- 52.2---
2024-05-28 10:00 am S 18 18----29.68-0.02 51.8- 51.8---
2024-05-28 09:00 amSSE 22 23----29.67-0.05 52.2- 52.2---
2024-05-28 08:00 am SE 22 23----29.68-0.05 52.2- 52.2---
2024-05-28 07:00 amSSE 22 24----29.70-0.04 52.7- 52.7---
2024-05-28 06:00 amSSE 23 24----29.72-0.05 53.1- 53.1---
2024-05-28 05:00 am SE 29 31----29.73-0.09 53.8- 53.8---
2024-05-28 04:00 am SE 28 30----29.74-0.09 53.8- 53.8---
2024-05-28 03:00 am SE 29 31----29.77-0.10 53.6- 53.6---
2024-05-28 02:00 am SE 26 29----29.82-0.08 53.6- 53.6---
2024-05-28 01:00 amESE 27 28----29.83-0.09 52.7- 52.7---
2024-05-28 12:00 amESE 26 28----29.87-0.08 52.2- 52.2---
2024-05-27 11:00 pmESE 27 28----29.90-0.07 51.6- 51.6---
2024-05-27 10:00 pmESE 29 31----29.92-0.06 52.0- 52.0---
2024-05-27 09:00 pmESE 26 29----29.95-0.04 50.9- 50.9---
2024-05-27 08:00 pmESE 25 26----29.97-0.05 50.5- 50.5---
2024-05-27 07:00 pmESE 25 27----29.98-0.04 50.5- 50.5---
2024-05-27 06:00 pmESE 27 30----29.99-0.06 50.7- 50.4---
2024-05-27 05:00 pmESE 25 27----30.02-0.05 51.3- 49.1---
2024-05-27 04:00 pm E 28 29----30.02-0.06 50.7- 48.6---